This is the latest recevied weather packets stored in our database for station/object N9BID. If no packets are shown the sender has not sent any weather packets the latest 10 day(s).
| Time | Temp. | Humidity | Pressure | Rain* | Wind** | Luminosity | Snow |
|---|---|---|---|---|---|---|---|
| 1777797354 | 8.89° C | 74% | 1000.3 hPa | 0 mm | - | 0 W/m² | - |
| 1777797051 | 8.89° C | 71% | 1000.4 hPa | 0 mm | - | 0 W/m² | - |
| 1777796748 | 8.89° C | 72% | 1000.5 hPa | 0 mm | - | 0 W/m² | - |
| 1777796445 | 9.44° C | 72% | 1000.5 hPa | 0 mm | - | 0 W/m² | - |
| 1777796145 | 8.89° C | 73% | 1000.8 hPa | 0 mm | - | 0 W/m² | - |
| 1777795842 | 9.44° C | 74% | 1000.9 hPa | 0 mm | - | 0 W/m² | - |
| 1777795538 | 9.44° C | 73% | 1001.1 hPa | 0 mm | - | 0 W/m² | - |
| 1777795235 | 9.44° C | 73% | 1000.9 hPa | 0 mm | - | 0 W/m² | - |
| 1777794932 | 10° C | 72% | 1001.3 hPa | 0 mm | - | 0 W/m² | - |
| 1777794628 | 10° C | 74% | 1001 hPa | 0 mm | - | 0 W/m² | - |
| 1777794324 | 10.56° C | 71% | 1001 hPa | 0 mm | - | 0 W/m² | - |
| 1777794019 | 10.56° C | 69% | 1000.9 hPa | 0 mm | - | 0 W/m² | - |
| 1777793716 | 10.56° C | 69% | 1000.9 hPa | 0 mm | - | 0 W/m² | - |
| 1777793415 | 10.56° C | 66% | 1001 hPa | 0 mm | - | 0 W/m² | - |
| 1777793112 | 10.56° C | 64% | 1001 hPa | 0 mm | - | 0 W/m² | - |
| 1777792809 | 10.56° C | 66% | 1001.3 hPa | 0 mm | - | 0 W/m² | - |
| 1777792506 | 10° C | 67% | 1001.4 hPa | 0 mm | - | 0 W/m² | - |
| 1777792202 | 10.56° C | 66% | 1001.6 hPa | 0 mm | - | 0 W/m² | - |
| 1777791899 | 10.56° C | 64% | 1001.6 hPa | 0 mm | - | 0 W/m² | - |
| 1777791597 | 10.56° C | 64% | 1001.7 hPa | 0 mm | - | 0 W/m² | - |
| 1777791294 | 10.56° C | 65% | 1001.9 hPa | 0 mm | - | 0 W/m² | - |
| 1777790992 | 10.56° C | 62% | 1001.5 hPa | 0 mm | - | 0 W/m² | - |
| 1777790689 | 10.56° C | 62% | 1001.7 hPa | 0 mm | - | 0 W/m² | - |
| 1777790386 | 10.56° C | 62% | 1001.8 hPa | 0 mm | - | 0 W/m² | - |
| 1777790083 | 10.56° C | 60% | 1001.6 hPa | 0 mm | - | 0 W/m² | - |
* Rain latest hour (hover to see other rain measurements)
** Current wind speed in m/s (hover to see current wind gust speed)